Time,TemperatureF,DewpointF,PressureIn,WindDirection,WindDirectionDegrees,WindSpeedMPH,WindSpeedGustMPH,Humidity,HourlyPrecipIn,Conditions,Clouds,dailyrainin,SoftwareType,DateUTC
2013-01-05 00:10:00,31.9,24.0,30.37,North,355,0.0,2.0,72,0.00,,,0.00,weatherlink.com 1.10,2013-01-05 05:10:00,
2013-01-05 00:24:00,31.4,24.0,30.36,WNW,292,1.0,3.0,74,0.00,,,0.00,weatherlink.com 1.10,2013-01-05 05:24:00,
2013-01-05 00:39:00,30.5,24.0,30.36,WNW,292,1.0,2.0,78,0.00,,,0.00,weatherlink.com 1.10,2013-01-05 05:39:00,
2013-01-05 00:54:00,29.5,24.0,30.36,WNW,292,1.0,2.0,80,0.00,,,0.00,weatherlink.com 1.10,2013-01-05 05:54:00,
2013-01-05 01:09:00,29.1,24.0,30.36,WNW,292,1.0,2.0,80,0.00,,,0.00,weatherlink.com 1.10,2013-01-05 06:09:00,
2013-01-05 01:24:00,28.8,24.0,30.36,WNW,292,0.0,1.0,82,0.00,,,0.00,weatherlink.com 1.10,2013-01-05 06:24:00,
2013-01-05 01:39:00,28.4,24.0,30.36,WNW,292,0.0,1.0,83,0.00,,,0.00,weatherlink.com 1.10,2013-01-05 06:39:00,
2013-01-05 01:54:00,28.0,24.0,30.36,WNW,292,0.0,2.0,83,0.00,,,0.00,weatherlink.com 1.10,2013-01-05 06:54:00,
2013-01-05 02:09:00,27.8,24.0,30.36,WNW,292,0.0,0.0,85,0.00,,,0.00,weatherlink.com 1.10,2013-01-05 07:09:00,
2013-01-05 02:24:00,27.5,24.0,30.36,WNW,292,2.0,2.0,86,0.00,,,0.00,weatherlink.com 1.10,2013-01-05 07:24:00,
2013-01-05 02:39:00,27.7,24.0,30.36,WNW,292,1.0,2.0,85,0.00,,,0.00,weatherlink.com 1.10,2013-01-05 07:39:00,
2013-01-05 02:54:00,27.6,24.0,30.36,WNW,292,1.0,1.0,86,0.00,,,0.00,weatherlink.com 1.10,2013-01-05 07:54:00,
2013-01-05 03:09:00,27.5,24.0,30.36,WNW,292,2.0,2.0,86,0.00,,,0.00,weatherlink.com 1.10,2013-01-05 08:09:00,
2013-01-05 03:24:00,27.5,24.0,30.36,WNW,292,0.0,2.0,85,0.00,,,0.00,weatherlink.com 1.10,2013-01-05 08:24:00,
2013-01-05 03:39:00,27.4,24.0,30.36,WNW,292,1.0,1.0,86,0.00,,,0.00,weatherlink.com 1.10,2013-01-05 08:39:00,
2013-01-05 03:55:00,27.2,24.0,30.35,WNW,292,0.0,2.0,87,0.00,,,0.00,weatherlink.com 1.10,2013-01-05 08:55:00,
2013-01-05 04:10:00,27.3,23.0,30.35,WNW,292,0.0,1.0,85,0.00,,,0.00,weatherlink.com 1.10,2013-01-05 09:10:00,
2013-01-05 04:25:00,27.3,24.0,30.34,WNW,292,0.0,2.0,87,0.00,,,0.00,weatherlink.com 1.10,2013-01-05 09:25:00,
2013-01-05 04:40:00,28.0,23.0,30.34,WNW,292,1.0,2.0,81,0.00,,,0.00,weatherlink.com 1.10,2013-01-05 09:40:00,
2013-01-05 04:55:00,28.9,24.0,30.34,WNW,292,0.0,2.0,82,0.00,,,0.00,weatherlink.com 1.10,2013-01-05 09:55:00,
2013-01-05 05:10:00,28.5,24.0,30.35,WNW,292,0.0,0.0,82,0.00,,,0.00,weatherlink.com 1.10,2013-01-05 10:10:00,
2013-01-05 05:25:00,28.1,24.0,30.35,WNW,292,0.0,1.0,84,0.00,,,0.00,weatherlink.com 1.10,2013-01-05 10:25:00,
2013-01-05 05:40:00,27.7,23.0,30.35,WNW,292,0.0,0.0,82,0.00,,,0.00,weatherlink.com 1.10,2013-01-05 10:40:00,
2013-01-05 05:55:00,27.4,23.0,30.36,WNW,292,0.0,1.0,82,0.00,,,0.00,weatherlink.com 1.10,2013-01-05 10:55:00,
2013-01-05 06:10:00,26.9,23.0,30.37,WNW,292,0.0,0.0,85,0.00,,,0.00,weatherlink.com 1.10,2013-01-05 11:10:00,
2013-01-05 06:25:00,26.7,22.0,30.38,WNW,292,0.0,2.0,83,0.00,,,0.00,weatherlink.com 1.10,2013-01-05 11:25:00,
2013-01-05 06:40:00,26.7,23.0,30.38,WNW,292,1.0,1.0,85,0.00,,,0.00,weatherlink.com 1.10,2013-01-05 11:40:00,
2013-01-05 06:55:00,26.3,23.0,30.38,WNW,292,0.0,0.0,87,0.00,,,0.00,weatherlink.com 1.10,2013-01-05 11:55:00,
2013-01-05 07:10:00,26.1,23.0,30.39,WNW,292,0.0,1.0,87,0.00,,,0.00,weatherlink.com 1.10,2013-01-05 12:10:00,
2013-01-05 07:25:00,25.8,23.0,30.39,WNW,292,0.0,0.0,88,0.00,,,0.00,weatherlink.com 1.10,2013-01-05 12:25:00,
2013-01-05 07:40:00,25.6,23.0,30.40,WNW,292,0.0,1.0,88,0.00,,,0.00,weatherlink.com 1.10,2013-01-05 12:40:00,
2013-01-05 07:55:00,25.7,23.0,30.41,WNW,292,0.0,0.0,88,0.00,,,0.00,weatherlink.com 1.10,2013-01-05 12:55:00,
2013-01-05 08:10:00,26.1,23.0,30.41,WNW,292,0.0,0.0,88,0.00,,,0.00,weatherlink.com 1.10,2013-01-05 13:10:00,
2013-01-05 08:25:00,27.2,24.0,30.41,WNW,292,0.0,0.0,87,0.00,,,0.00,weatherlink.com 1.10,2013-01-05 13:25:00,
2013-01-05 08:40:00,28.7,25.0,30.41,WNW,292,0.0,0.0,87,0.00,,,0.00,weatherlink.com 1.10,2013-01-05 13:40:00,
2013-01-05 08:55:00,31.0,27.0,30.42,WNW,292,0.0,0.0,84,0.00,,,0.00,weatherlink.com 1.10,2013-01-05 13:55:00,
2013-01-05 09:10:00,32.9,28.0,30.41,WNW,292,0.0,1.0,81,0.00,,,0.00,weatherlink.com 1.10,2013-01-05 14:10:00,
2013-01-05 09:25:00,35.3,29.0,30.42,West,263,1.0,2.0,78,0.00,,,0.00,weatherlink.com 1.10,2013-01-05 14:25:00,
2013-01-05 09:40:00,36.9,28.0,30.42,SSE,165,1.0,3.0,71,0.00,,,0.00,weatherlink.com 1.10,2013-01-05 14:40:00,
2013-01-05 09:55:00,38.6,26.0,30.42,SSW,194,3.0,4.0,61,0.00,,,0.00,weatherlink.com 1.10,2013-01-05 14:55:00,
2013-01-05 10:10:00,39.9,25.0,30.42,SSW,199,1.0,5.0,55,0.00,,,0.00,weatherlink.com 1.10,2013-01-05 15:10:00,
2013-01-05 10:25:00,40.6,25.0,30.42,SW,233,1.0,4.0,54,0.00,,,0.00,weatherlink.com 1.10,2013-01-05 15:25:00,
2013-01-05 10:40:00,40.8,24.0,30.43,West,273,3.0,5.0,51,0.00,,,0.00,weatherlink.com 1.10,2013-01-05 15:40:00,
2013-01-05 10:55:00,41.1,23.0,30.43,NNW,340,4.0,5.0,49,0.00,,,0.00,weatherlink.com 1.10,2013-01-05 15:55:00,
2013-01-05 11:10:00,42.3,24.0,30.42,SSE,164,4.0,4.0,49,0.00,,,0.00,weatherlink.com 1.10,2013-01-05 16:10:00,
2013-01-05 11:26:00,43.2,23.0,30.41,SSW,196,3.0,6.0,45,0.00,,,0.00,weatherlink.com 1.10,2013-01-05 16:26:00,
2013-01-05 11:41:00,44.6,24.0,30.41,WSW,251,0.0,3.0,44,0.00,,,0.00,weatherlink.com 1.10,2013-01-05 16:41:00,
2013-01-05 11:56:00,45.2,23.0,30.39,SSW,211,2.0,4.0,41,0.00,,,0.00,weatherlink.com 1.10,2013-01-05 16:56:00,
2013-01-05 12:11:00,45.5,22.0,30.38,ESE,112,0.0,5.0,40,0.00,,,0.00,weatherlink.com 1.10,2013-01-05 17:11:00,
2013-01-05 12:26:00,45.8,24.0,30.38,WSW,244,2.0,5.0,43,0.00,,,0.00,weatherlink.com 1.10,2013-01-05 17:26:00,
2013-01-05 12:41:00,45.7,24.0,30.37,North,350,2.0,4.0,43,0.00,,,0.00,weatherlink.com 1.10,2013-01-05 17:41:00,
2013-01-05 12:56:00,45.4,23.0,30.37,West,261,2.0,7.0,42,0.00,,,0.00,weatherlink.com 1.10,2013-01-05 17:56:00,
2013-01-05 13:11:00,46.0,24.0,30.36,NNW,346,1.0,3.0,43,0.00,,,0.00,weatherlink.com 1.10,2013-01-05 18:11:00,
2013-01-05 13:26:00,45.8,23.0,30.34,NW,312,1.0,5.0,41,0.00,,,0.00,weatherlink.com 1.10,2013-01-05 18:26:00,
2013-01-05 13:41:00,46.1,24.0,30.34,North,5,1.0,5.0,42,0.00,,,0.00,weatherlink.com 1.10,2013-01-05 18:41:00,
2013-01-05 13:56:00,46.4,25.0,30.33,West,274,2.0,3.0,44,0.00,,,0.00,weatherlink.com 1.10,2013-01-05 18:56:00,
2013-01-05 14:11:00,46.7,25.0,30.33,NE,36,0.0,5.0,43,0.00,,,0.00,weatherlink.com 1.10,2013-01-05 19:11:00,
2013-01-05 14:27:00,46.7,25.0,30.32,SSW,193,1.0,4.0,42,0.00,,,0.00,weatherlink.com 1.10,2013-01-05 19:27:00,
2013-01-05 14:41:00,46.7,23.0,30.32,West,271,1.0,4.0,40,0.00,,,0.00,weatherlink.com 1.10,2013-01-05 19:41:00,
2013-01-05 14:56:00,46.9,23.0,30.32,WSW,240,2.0,6.0,39,0.00,,,0.00,weatherlink.com 1.10,2013-01-05 19:56:00,
2013-01-05 15:11:00,46.9,24.0,30.31,SSE,160,0.0,5.0,41,0.00,,,0.00,weatherlink.com 1.10,2013-01-05 20:11:00,
2013-01-05 15:26:00,47.4,25.0,30.31,SSW,198,1.0,4.0,42,0.00,,,0.00,weatherlink.com 1.10,2013-01-05 20:26:00,
2013-01-05 15:41:00,46.9,25.0,30.31,South,173,2.0,4.0,43,0.00,,,0.00,weatherlink.com 1.10,2013-01-05 20:41:00,
2013-01-05 15:56:00,46.8,26.0,30.31,South,177,1.0,2.0,44,0.00,,,0.00,weatherlink.com 1.10,2013-01-05 20:56:00,
2013-01-05 16:11:00,46.8,26.0,30.31,South,174,0.0,2.0,44,0.00,,,0.00,weatherlink.com 1.10,2013-01-05 21:11:00,
2013-01-05 16:26:00,46.8,26.0,30.32,NNW,336,0.0,2.0,45,0.00,,,0.00,weatherlink.com 1.10,2013-01-05 21:26:00,
2013-01-05 16:41:00,46.8,26.0,30.33,West,277,1.0,3.0,45,0.00,,,0.00,weatherlink.com 1.10,2013-01-05 21:41:00,
2013-01-05 16:57:00,46.3,27.0,30.32,South,178,0.0,2.0,47,0.00,,,0.00,weatherlink.com 1.10,2013-01-05 21:57:00,
2013-01-05 17:11:00,45.8,26.0,30.31,SSW,206,1.0,3.0,47,0.00,,,0.00,weatherlink.com 1.10,2013-01-05 22:11:00,
2013-01-05 17:26:00,45.3,27.0,30.32,South,189,1.0,1.0,50,0.00,,,0.00,weatherlink.com 1.10,2013-01-05 22:26:00,
2013-01-05 17:41:00,44.6,28.0,30.31,South,189,0.0,1.0,53,0.00,,,0.00,weatherlink.com 1.10,2013-01-05 22:41:00,
2013-01-05 17:56:00,43.9,27.0,30.32,South,189,0.0,2.0,52,0.00,,,0.00,weatherlink.com 1.10,2013-01-05 22:56:00,
2013-01-05 18:11:00,43.6,29.0,30.32,SW,218,0.0,1.0,56,0.00,,,0.00,weatherlink.com 1.10,2013-01-05 23:11:00,
2013-01-05 18:26:00,43.4,28.0,30.32,SW,218,0.0,1.0,56,0.00,,,0.00,weatherlink.com 1.10,2013-01-05 23:26:00,
2013-01-05 18:41:00,43.3,29.0,30.32,SW,218,0.0,0.0,58,0.00,,,0.00,weatherlink.com 1.10,2013-01-05 23:41:00,
2013-01-05 18:56:00,43.1,29.0,30.33,SW,218,0.0,0.0,59,0.00,,,0.00,weatherlink.com 1.10,2013-01-05 23:56:00,
2013-01-05 19:11:00,42.9,29.0,30.32,SW,218,0.0,0.0,59,0.00,,,0.00,weatherlink.com 1.10,2013-01-06 00:11:00,
2013-01-05 19:26:00,42.8,30.0,30.33,SW,218,0.0,0.0,62,0.00,,,0.00,weatherlink.com 1.10,2013-01-06 00:26:00,
2013-01-05 19:41:00,42.7,30.0,30.34,SW,218,0.0,0.0,62,0.00,,,0.00,weatherlink.com 1.10,2013-01-06 00:41:00,
2013-01-05 19:56:00,42.6,31.0,30.33,SW,218,0.0,0.0,63,0.00,,,0.00,weatherlink.com 1.10,2013-01-06 00:56:00,
2013-01-05 20:11:00,42.5,32.0,30.34,SW,218,0.0,0.0,66,0.00,,,0.00,weatherlink.com 1.10,2013-01-06 01:11:00,
2013-01-05 20:26:00,42.5,33.0,30.35,SW,218,0.0,1.0,68,0.00,,,0.00,weatherlink.com 1.10,2013-01-06 01:26:00,
2013-01-05 20:41:00,42.5,31.0,30.36,SW,218,0.0,1.0,64,0.00,,,0.00,weatherlink.com 1.10,2013-01-06 01:41:00,
2013-01-05 20:56:00,42.8,30.0,30.36,SSW,199,0.0,3.0,62,0.00,,,0.00,weatherlink.com 1.10,2013-01-06 01:56:00,
2013-01-05 21:11:00,43.1,29.0,30.35,South,190,0.0,2.0,59,0.00,,,0.00,weatherlink.com 1.10,2013-01-06 02:11:00,
2013-01-05 21:26:00,43.3,30.0,30.33,West,272,0.0,2.0,61,0.00,,,0.00,weatherlink.com 1.10,2013-01-06 02:26:00,
2013-01-05 21:41:00,42.9,33.0,30.32,West,272,0.0,1.0,69,0.00,,,0.00,weatherlink.com 1.10,2013-01-06 02:41:00,
2013-01-05 21:56:00,42.1,34.0,30.31,West,272,0.0,0.0,74,0.00,,,0.00,weatherlink.com 1.10,2013-01-06 02:56:00,
2013-01-05 22:11:00,41.7,34.0,30.31,West,272,1.0,1.0,74,0.00,,,0.00,weatherlink.com 1.10,2013-01-06 03:11:00,
2013-01-05 22:26:00,41.4,35.0,30.30,West,272,0.0,1.0,77,0.00,,,0.00,weatherlink.com 1.10,2013-01-06 03:26:00,
2013-01-05 22:41:00,40.9,35.0,30.29,West,272,0.0,1.0,80,0.00,,,0.00,weatherlink.com 1.10,2013-01-06 03:41:00,
2013-01-05 22:56:00,40.4,36.0,30.29,West,272,0.0,1.0,85,0.00,,,0.00,weatherlink.com 1.10,2013-01-06 03:56:00,
2013-01-05 23:11:00,40.1,37.0,30.28,West,272,0.0,0.0,87,0.01,,,0.01,weatherlink.com 1.10,2013-01-06 04:11:00,
2013-01-05 23:26:00,39.8,37.0,30.28,West,272,0.0,0.0,88,0.01,,,0.01,weatherlink.com 1.10,2013-01-06 04:26:00,
2013-01-05 23:41:00,39.7,37.0,30.27,West,272,0.0,0.0,89,0.01,,,0.01,weatherlink.com 1.10,2013-01-06 04:41:00,
2013-01-05 23:56:00,39.5,37.0,30.27,West,272,0.0,1.0,90,0.01,,,0.01,weatherlink.com 1.10,2013-01-06 04:56:00,